[[{"header":{"parameterUnit":"m.s-1","parameterCategory":1,"la1":30.2991,"la2":30.254,"lo1":-89.0895,"lo2":-89.0444,"dy":0.0017,"dx":0.0017,"nx":28,"ny":28,"refTime":"2025-11-22T09:00:00:Z","depth":0,"parameterNumber":2,"parameterNumberName":"U-component_of_WINDS"},"data":[0,0,0,0,0,0,0,0,0,0,0,0,0,0,0,0,0,0,0,0,0,0,0,0,0,0,0,0,0,0,0,0,0,0,0,0,0,0,0,0,0,0,0,0,0,0,0,0,0,0,0,0,0,0,0,0,0,0,2.2672,2.2673,0,2.2791,2.2793,2.2794,2.2804,2.2802,2.2801,2.28,2.2926,2.2931,2.2935,0,0,0,0,0,0,0,0,0,0,0,0,0,2.2459,2.2462,2.2672,2.2673,2.2675,2.2791,2.2793,2.2794,2.2804,2.2802,2.2801,2.2799,2.2925,2.293,2.2936,0,0,0,0,0,0,0,0,0,0,0,0,0,2.2562,2.2464,2.2672,2.2694,2.2697,2.2791,2.2793,2.2795,2.2804,2.2802,2.28,2.2799,2.2923,2.293,2.2937,2.3018,0,0,2.2958,2.2961,0,0,0,0,0,0,0,0,2.2556,2.257,2.2689,2.2692,2.2696,2.2781,2.2764,2.287,2.2805,2.2764,2.28,2.2798,2.288,2.289,2.2917,2.3024,2.303,2.2958,2.2962,2.2965,2.2967,0,0,0,0,0,0,0,2.2549,2.2565,2.2719,2.2691,2.2695,2.27,2.2712,2.2784,2.2831,2.2767,2.2768,2.2782,2.2881,2.291,2.292,2.3032,2.2958,2.2964,2.2968,2.2971,2.3216,2.3218,0,0,0,0,0,0,2.2537,2.2559,2.2716,2.2723,2.262,2.2705,2.2719,2.2755,2.2831,2.284,2.2783,2.2782,2.29,2.2912,2.2924,2.3027,2.2965,2.2972,2.2976,2.3214,2.3217,2.3219,0,0,0,0,0,0,2.2532,2.2551,2.2711,2.2641,2.2662,2.2711,2.2752,2.2759,2.2788,2.2843,2.2852,2.2804,2.2898,2.2915,2.2996,2.3032,2.2975,2.2981,2.3211,2.3215,2.3218,2.3232,0,0,0,0,0,0,2.2526,2.2549,2.2579,2.2642,2.2665,2.2778,2.2754,2.2763,2.2799,2.2798,2.2864,2.2874,2.2898,2.2985,2.3002,2.304,2.2987,2.3208,2.3212,2.3217,2.3228,2.3235,2.3242,0,0,0,0,0,2.2518,2.2578,2.258,2.2599,2.2703,2.278,2.2793,2.2819,2.2802,2.2834,2.287,2.2871,2.3025,2.2993,2.3013,2.3053,2.3206,2.3211,2.3216,2.3225,2.3234,2.3241,0,0,0,0,0,0,2.2519,2.2587,2.259,2.2671,2.272,2.2781,2.2821,2.2827,2.2882,2.2879,2.2911,2.2926,2.3006,2.3038,2.3001,2.3138,2.3114,2.3123,2.3114,2.3123,2.3129,2.312,2.2992,0,0,0,0,0,2.2528,2.2583,2.264,2.2706,2.273,2.2772,2.2806,2.2822,2.2874,2.2895,2.2936,2.2988,2.3049,2.3087,2.3146,2.3233,2.325,2.3271,2.3278,2.3283,2.3291,2.3343,2.3354,2.3237,2.3237,2.3237,0,0,2.2548,2.2592,2.2625,2.2708,2.2747,2.2805,2.2789,2.285,2.2894,2.2904,2.2983,2.3016,2.3076,2.3161,2.3201,2.319,2.3327,2.329,2.3293,2.3299,2.3349,2.336,2.337,2.324,2.324,2.3239,0,0,2.2615,2.2653,2.2713,2.2754,2.2813,2.2841,2.2856,2.2917,2.2939,2.3019,2.3029,2.3083,2.3185,2.3228,2.3264,2.335,2.3355,2.3369,2.3403,2.3453,2.3462,2.3471,2.3504,2.3515,2.3377,2.3377,2.3377,0,2.2633,2.2718,2.2744,2.2806,2.2843,2.2855,2.2919,2.2957,2.3033,2.306,2.3047,2.3177,2.3218,2.3315,2.3337,2.3364,2.3384,2.3361,2.3459,2.3467,2.3476,2.3507,2.3519,2.3378,2.3378,2.3378,2.3377,0,2.2739,2.2799,2.2841,2.2914,2.2956,2.3018,2.3056,2.3096,2.311,2.314,2.3222,2.3273,2.3342,2.3367,2.338,2.3467,2.3459,2.3452,2.3428,2.3488,2.3518,2.353,2.338,2.3379,2.3379,2.3379,0,0,2.2807,2.2895,2.291,2.2945,2.3013,2.3061,2.3126,2.3193,2.3228,2.3281,2.3338,2.3426,2.3421,2.3461,2.348,2.3524,2.3592,2.3512,2.3514,2.3527,2.3694,2.3699,2.3712,2.3596,2.3599,2.36,2.3689,0,2.2882,2.2995,2.3022,2.3119,2.3177,2.319,2.3247,2.3297,2.3327,2.3382,2.3417,2.3479,2.3467,2.3492,2.3536,2.3574,2.3627,2.3568,2.3651,2.3654,2.3636,2.3728,2.3733,2.3814,2.3701,2.3703,2.3705,0,2.2984,2.3039,2.3143,2.3206,2.3231,2.3281,2.3347,2.3399,2.3457,2.3476,2.3523,2.3538,2.3609,2.3582,2.3681,2.3641,2.3677,2.3702,2.3705,2.3714,2.3683,2.374,2.384,2.3852,2.3723,2.3722,2.372,0,2.3025,2.3126,2.3201,2.323,2.3306,2.3341,2.3375,2.343,2.347,2.3529,2.3556,2.3622,2.3658,2.3711,2.3745,2.3722,2.3843,2.3818,2.3863,2.3862,2.3887,2.3885,2.3995,2.3909,2.3909,2.3909,2.3908,0,2.3106,2.3169,2.3221,2.3267,2.334,2.3371,2.3443,2.3477,2.3527,2.3583,2.3599,2.3651,2.3693,2.3751,2.3779,2.3858,2.3875,2.3894,2.3901,2.3893,2.3891,2.3917,2.3912,2.3912,2.3911,2.3911,2.391,0,2.3164,2.3201,2.3284,2.335,2.3368,2.3418,2.3475,2.3523,2.3555,2.3625,2.3643,2.3694,2.3764,2.3804,2.3892,2.3911,2.4,2.4003,2.398,2.3983,2.4026,2.4022,2.4157,2.4177,2.4077,2.4078,2.4079,0,2.3213,2.3262,2.3333,2.3371,2.3405,2.3466,2.3507,2.3541,2.3584,2.3655,2.3695,2.3766,2.3824,2.3937,2.3983,2.4052,2.4057,2.41,2.4068,2.4059,2.406,2.4056,2.4063,2.4106,2.4107,2.4107,2.4108,0,2.3298,2.3314,2.3372,2.3437,2.3486,2.3539,2.3592,2.3623,2.3667,2.3714,2.3786,2.3831,2.3922,2.3994,2.4067,2.4104,2.4114,2.4118,2.4132,2.4125,2.4109,2.412,2.3996,2.4114,2.4114,2.4113,2.4113,2.4113,2.3354,2.3399,2.3457,2.3522,2.3565,2.3615,2.3663,2.3702,2.3762,2.3837,2.3855,2.3931,2.3992,2.409,2.413,2.4192,2.4184,2.4204,2.421,2.4214,2.4216,2.41,2.4205,2.4205,2.4205,2.4205,2.4205,0,2.344,2.3479,2.3538,2.3612,2.3664,2.3668,2.3728,2.3772,2.3838,2.3893,2.3951,2.4035,2.4105,2.4157,2.423,2.427,2.4276,2.4288,2.4285,2.4294,2.4218,2.4199,2.4281,2.4281,2.4281,2.4281,2.4281,2.4281,2.3491,2.3569,2.3592,2.3693,2.3732,2.3805,2.3839,2.3887,2.3931,2.4023,2.4081,2.4115,2.417,2.4247,2.4313,2.4327,2.4354,2.4364,2.4379,2.4307,2.4299,2.4291,2.4274,2.4369,2.437,2.445,2.4451,2.4451]},{"header":{"parameterUnit":"m.s-1","parameterCategory":1,"la1":30.2991,"la2":30.254,"lo1":-89.0895,"lo2":-89.0444,"dy":0.0017,"dx":0.0017,"nx":28,"ny":28,"refTime":"2025-11-22T09:00:00:Z","depth":0,"parameterNumber":3,"parameterNumberName":"V-component_of_WINDS"},"data":[0,0,0,0,0,0,0,0,0,0,0,0,0,0,0,0,0,0,0,0,0,0,0,0,0,0,0,0,0,0,0,0,0,0,0,0,0,0,0,0,0,0,0,0,0,0,0,0,0,0,0,0,0,0,0,0,0,0,0.3786,0.3786,0,0.38,0.38,0.38,0.3798,0.3798,0.3797,0.3797,0.3812,0.3813,0.3814,0,0,0,0,0,0,0,0,0,0,0,0,0,0.3757,0.3757,0.3786,0.3786,0.3786,0.38,0.38,0.38,0.3798,0.3798,0.3797,0.3797,0.3812,0.3813,0.3814,0,0,0,0,0,0,0,0,0,0,0,0,0,0.377,0.3757,0.3786,0.3787,0.3787,0.38,0.38,0.38,0.3798,0.3798,0.3797,0.3797,0.3812,0.3813,0.3814,0.3827,0,0,0.3817,0.3817,0,0,0,0,0,0,0,0,0.3769,0.3771,0.3786,0.3787,0.3787,0.3797,0.3795,0.3809,0.3798,0.3794,0.3797,0.3797,0.3807,0.3809,0.3812,0.3828,0.3828,0.3817,0.3817,0.3818,0.3818,0,0,0,0,0,0,0,0.3768,0.377,0.3792,0.3787,0.3787,0.3786,0.3788,0.3798,0.3803,0.3794,0.3794,0.3796,0.3808,0.3811,0.3813,0.3829,0.3817,0.3818,0.3818,0.3818,0.3855,0.3855,0,0,0,0,0,0,0.3767,0.377,0.3791,0.3792,0.3777,0.3787,0.3789,0.3794,0.3802,0.3803,0.3796,0.3796,0.381,0.3811,0.3813,0.3829,0.3818,0.3819,0.3819,0.3854,0.3855,0.3855,0,0,0,0,0,0,0.3766,0.3769,0.379,0.3781,0.3783,0.3788,0.3794,0.3795,0.3798,0.3804,0.3805,0.3799,0.381,0.3812,0.3823,0.3829,0.3819,0.382,0.3854,0.3854,0.3855,0.386,0,0,0,0,0,0,0.3766,0.3769,0.3774,0.3781,0.3784,0.3801,0.3794,0.3795,0.38,0.3799,0.3807,0.3808,0.381,0.3822,0.3824,0.383,0.3821,0.3853,0.3854,0.3855,0.386,0.3861,0.3862,0,0,0,0,0,0.3765,0.3775,0.3774,0.3777,0.3791,0.3801,0.3803,0.3804,0.38,0.3806,0.3809,0.3808,0.3828,0.3823,0.3826,0.3832,0.3853,0.3854,0.3855,0.3859,0.3861,0.3862,0,0,0,0,0,0,0.377,0.3776,0.3775,0.3789,0.3794,0.3801,0.3807,0.3806,0.3813,0.3813,0.3814,0.3816,0.3828,0.3831,0.3825,0.3845,0.384,0.3841,0.3842,0.3844,0.3845,0.3844,0.3821,0,0,0,0,0,0.3772,0.378,0.3786,0.3797,0.38,0.3803,0.3807,0.3808,0.3814,0.3816,0.3821,0.3827,0.3834,0.3839,0.3847,0.386,0.3861,0.3866,0.3867,0.3868,0.3869,0.3876,0.3878,0.3858,0.3858,0.3858,0,0,0.3778,0.3783,0.3788,0.3798,0.3802,0.381,0.3805,0.3814,0.3819,0.3818,0.3829,0.3832,0.3839,0.3851,0.3856,0.3854,0.3875,0.3869,0.387,0.3871,0.3877,0.3879,0.388,0.3859,0.3859,0.3858,0,0,0.3793,0.3797,0.3806,0.3811,0.3817,0.3819,0.3821,0.3827,0.3829,0.384,0.3839,0.3845,0.3859,0.3863,0.3867,0.3882,0.3881,0.3884,0.3891,0.3897,0.3899,0.39,0.3905,0.3907,0.3885,0.3885,0.3885,0,0.3799,0.3811,0.3811,0.382,0.3824,0.3822,0.3832,0.3836,0.3844,0.3847,0.3844,0.386,0.3865,0.3878,0.3881,0.3885,0.3887,0.3884,0.3899,0.39,0.3901,0.3906,0.3908,0.3886,0.3886,0.3886,0.3886,0,0.3818,0.3826,0.3833,0.384,0.3846,0.3855,0.3856,0.3861,0.3861,0.3863,0.3874,0.3879,0.3887,0.389,0.389,0.3902,0.3901,0.3898,0.3893,0.3903,0.3908,0.391,0.3886,0.3886,0.3886,0.3886,0,0,0.3837,0.3844,0.3847,0.385,0.3856,0.3862,0.387,0.3878,0.3882,0.3887,0.3894,0.3905,0.3902,0.3907,0.3908,0.3913,0.3923,0.391,0.391,0.3912,0.3937,0.3939,0.3941,0.3922,0.3923,0.3923,0.3936,0,0.3852,0.3867,0.3867,0.388,0.3887,0.3885,0.3892,0.3897,0.3899,0.3905,0.3907,0.3914,0.3911,0.3913,0.3918,0.3921,0.3929,0.392,0.3929,0.3929,0.3927,0.3943,0.3945,0.3957,0.3938,0.3938,0.3938,0,0.3871,0.3877,0.3891,0.3895,0.3898,0.3905,0.3911,0.3917,0.3921,0.3922,0.3927,0.3926,0.3934,0.3929,0.394,0.3934,0.3938,0.3939,0.394,0.3941,0.3935,0.3944,0.3961,0.3963,0.3941,0.3941,0.3941,0,0.3883,0.3894,0.3904,0.3907,0.3912,0.3916,0.3919,0.3923,0.3927,0.3932,0.3935,0.3941,0.3945,0.395,0.3951,0.3947,0.3962,0.3956,0.3963,0.3962,0.3966,0.3966,0.3984,0.3968,0.3968,0.3968,0.3968,0,0.39,0.3908,0.3909,0.3915,0.3924,0.3924,0.3934,0.3936,0.3939,0.3945,0.3944,0.3949,0.395,0.3956,0.3957,0.3966,0.3967,0.3968,0.3968,0.3968,0.3968,0.3971,0.397,0.3969,0.3969,0.3969,0.3968,0,0.3915,0.3916,0.3926,0.393,0.3931,0.3938,0.3941,0.3946,0.3947,0.3955,0.3957,0.3959,0.3966,0.3967,0.3975,0.3975,0.3986,0.3985,0.3984,0.3984,0.399,0.3989,0.401,0.4013,0.3996,0.3996,0.3996,0,0.3926,0.3932,0.3936,0.394,0.3942,0.3948,0.3952,0.3952,0.3956,0.3961,0.3966,0.3972,0.3977,0.3988,0.399,0.3996,0.3996,0.4002,0.3997,0.3996,0.3995,0.3995,0.3995,0.4004,0.4004,0.4004,0.4004,0,0.3944,0.3944,0.3949,0.3954,0.3959,0.3963,0.3967,0.397,0.3971,0.3975,0.3982,0.3985,0.3993,0.3999,0.4005,0.4007,0.4006,0.4006,0.4008,0.4008,0.4007,0.4007,0.3987,0.4006,0.4005,0.4005,0.4005,0.4005,0.3957,0.3962,0.3965,0.3971,0.3974,0.3978,0.3983,0.3984,0.3989,0.3995,0.3995,0.4002,0.4006,0.4013,0.4015,0.4021,0.4019,0.4021,0.4022,0.4022,0.4023,0.4006,0.4022,0.4022,0.4022,0.4022,0.4022,0,0.3975,0.3976,0.3982,0.3987,0.3991,0.3989,0.3993,0.3997,0.4003,0.4006,0.4011,0.4018,0.4024,0.4026,0.4031,0.4035,0.4034,0.4037,0.4036,0.4037,0.4025,0.4023,0.4037,0.4037,0.4037,0.4037,0.4037,0.4037,0.3985,0.3993,0.3993,0.4003,0.4004,0.4011,0.4013,0.4016,0.4019,0.4027,0.4031,0.4032,0.4035,0.4041,0.4046,0.4046,0.4048,0.405,0.4051,0.4039,0.4038,0.4036,0.4034,0.4051,0.4051,0.4062,0.4062,0.4062]}]]